EW9774 Weather Reports


time (UTC)temp
F
wind
direction
speed
knots
gust
knots
rain 1hr
in
rain 24hr
in
rain mn
in
humidity
%
barometer
mb
20260506013107 70 166 4.3 8.7 0.00 0.00 0.00 58 1013.2
20260506011530 71 173 1.7 6.1 0.00 0.00 0.00 55 1013.1
20260506003108 73 270 0.9 6.1 0.00 0.00 0.00 53 1012.9
20260506001542 74 327 0.9 4.3 0.00 0.00 0.00 52 1012.9
20260506000147 74 193 1.7 7.0 0.00 0.00 0.00 52 1013.1
20260505234530 74 344 0.9 6.1 0.00 0.00 0.00 51 1013.2
20260505233030 74 16 1.7 4.3 0.00 0.00 0.00 51 1013.3
20260505231532 75 336 1.7 6.1 0.00 0.00 0.00 50 1013.3
20260505230030 76 351 0.9 5.2 0.00 0.00 0.00 50 1013.5
20260505224533 76 188 1.7 7.8 0.00 0.00 0.00 50 1013.6
20260505223030 75 338 2.6 7.0 0.00 0.00 0.00 49 1013.7
20260505221532 76 211 1.7 8.7 0.00 0.00 0.00 49 1013.8
20260505220031 76 193 1.7 8.7 0.00 0.00 0.00 50 1014.0
20260505214533 75 355 1.7 7.0 0.00 0.00 0.00 50 1014.0
20260505213032 75 352 1.7 9.6 0.00 0.00 0.00 49 1014.1
20260505211531 76 9 1.7 6.1 0.00 0.00 0.00 48 1014.1
20260505210029 75 185 1.7 6.1 0.00 0.00 0.00 50 1014.3
20260505203029 76 351 1.7 5.2 0.00 0.00 0.00 49 1014.6
20260505201530 75 352 1.7 6.1 0.00 0.00 0.00 50 1014.7
20260505200032 73 117 3.5 8.7 0.00 0.00 0.00 51 1014.8
20260505194531 74 274 2.6 8.7 0.00 0.00 0.00 50 1014.8
20260505193107 72 211 2.6 7.8 0.00 0.00 0.00 52 1015.0
20260505191533 72 8 1.7 7.8 0.00 0.00 0.00 52 1015.0
20260505190031 72 341 2.6 7.0 0.00 0.00 0.00 53 1015.0
20260505183106 71 5 1.7 7.0 0.00 0.00 0.00 54 1015.2
20260505181608 71 349 1.7 6.1 0.00 0.00 0.00 54 1015.2
20260505180105 71 338 1.7 8.7 0.00 0.00 0.00 55 1015.2
20260505174531 71 192 1.7 5.2 0.00 0.00 0.00 55 1015.2
20260505173106 70 329 0.9 10.4 0.00 0.00 0.00 57 1015.1
20260505171531 69 307 0.9 5.2 0.00 0.00 0.00 58 1015.1
20260505170148 68 202 1.7 7.0 0.00 0.00 0.00 59 1015.2
20260505164530 67 329 0.9 8.7 0.00 0.00 0.00 62 1015.1
20260505163030 66 232 3.5 9.6 0.00 0.00 0.00 62 1015.0
20260505161531 66 186 1.7 8.7 0.00 0.00 0.00 64 1015.2
20260505153030 63 189 1.7 7.0 0.00 0.00 0.00 71 1015.1
20260505151644 62 184 1.7 7.0 0.00 0.00 0.00 75 1015.0
20260505124532 50 200 1.7 3.5 0.00 0.00 0.00 93 1014.1
20260505123031 50 198 1.7 3.5 0.00 0.00 0.00 93 1014.0
20260505120030 52 196 1.7 3.5 0.00 0.00 0.00 93 1013.9
20260505114608 52 187 2.6 4.3 0.00 0.00 0.00 93 1013.8
20260505111532 52 193 1.7 3.5 0.00 0.00 0.00 92 1013.7
20260505101530 53 180 0.9 3.5 0.00 0.00 0.00 90 1013.3
20260505094531 54 174 0.0 3.5 0.00 0.00 0.00 89 1013.1
20260505093038 54 193 1.7 7.0 0.00 0.00 0.00 88 1013.0
20260505091540 54 183 0.0 3.5 0.00 0.00 0.00 87 1012.9
20260505091534 55 185 0.9 3.5 0.00 0.00 0.00 86 1012.6
20260505084532 55 195 0.0 3.5 0.00 0.00 0.00 85 1012.7
20260505083029 56 190 0.0 3.5 0.00 0.00 0.00 83 1012.6
20260505080032 59 202 0.0 2.6 0.00 0.00 0.00 77 1012.3
20260505073143 60 17 0.9 4.3 0.00 0.00 0.00 77 1012.2
20260505071532 59 359 0.0 2.6 0.00 0.00 0.00 76 1012.1
20260505070112 61 23 0.0 2.6 0.00 0.00 0.00 72 1012.0
20260505064528 62 22 1.7 3.5 0.00 0.00 0.00 69 1011.8
20260505063107 64 33 1.7 3.5 0.00 0.00 0.00 68 1011.8
20260505061533 63 360 1.7 4.3 0.00 0.00 0.00 70 1011.8
20260505054531 60 170 0.0 3.5 0.00 0.00 0.00 71 1011.7
20260505053031 61 41 0.9 3.5 0.00 0.00 0.00 68 1011.7
20260505051534 62 79 0.9 2.6 0.00 0.00 0.00 68 1011.6
20260505041535 61 154 0.0 5.2 0.00 0.00 0.00 65 1010.9
20260505040042 63 180 0.0 0.0 0.00 0.00 0.00 62 1010.7
20260505034530 64 201 0.0 2.6 0.00 0.00 0.00 60 1010.5
20260505033029 65 208 1.7 5.2 0.00 0.00 0.00 61 1010.2
20260505031646 67 56 0.0 2.6 0.00 0.00 0.00 61 1010.0
20260505030033 68 163 0.9 4.3 0.00 0.00 0.00 59 1009.7
20260505024531 69 138 0.9 3.5 0.00 0.00 0.00 58 1009.5
20260505023030 72 23 0.0 1.7 0.00 0.00 0.00 54 1009.4
20260505021605 73 29 0.9 3.5 0.00 0.00 0.00 49 1009.4
20260505020030 74 68 0.9 8.7 0.00 0.00 0.00 49 1009.3
20260505014537 75 109 0.9 5.2 0.00 0.00 0.00 48 1009.2